Flag for Canada Weather past 2 weeks in Fort Smith, Northwest Territories, Canada

Now
21 °F

Passing clouds.


Feels Like: 21 °F
Forecast: 22 / 43 °F
Wind: 2 mph from Southwest

Location: Fort Smith

Current Time: May 4, 2015 at 5:17:38 AM

Latest Report: May 4, 2015 at 4:00 AM


Visibility: 15 mi

Pressure: 30.23 "Hg

Humidity: 74%

Dew point: 14 °F

Location of Fort SmithLocation

Historic Weather in Fort Smith — Graph

°F

Fort Smith temperature yesterday

Maximum temperature yesterday: 34 °F (at 2:00 PM)
Minimum temperature yesterday: 28 °F (at 2:00 AM)
Average temperature yesterday: 31 °F

Past Weeks' High & Low Weather Summary

 TemperatureHumidityPressure
High72 °F (Apr 28, 4:00 PM)93% (May 3, 2:00 AM)30.31 "Hg (May 3, 2:00 AM)
Low12 °F (Apr 24, 6:00 AM)19% (Apr 26, 5:00 PM)29.52 "Hg (Apr 30, 2:00 PM)
Average41 °F52%29.96 "Hg
* Reported Apr 19 4:00 AM — May 4 4:00 AM, Fort Smith, Weather by CustomWeather, © 2015

Note: Actual official high and low records may vary slightly from our data, if they occured in-between our weather recording intervals... More about our weather records

Advertising

Fort Smith weather history for previous 24 hours

 ConditionsComfort  
Time TempWeatherWind HumidityBarometerVisibility
4:00 AM
Mon, May 4
21 °FPassing clouds.2 mph74%30.23 "Hg15 mi
3:00 AM21 °FPassing clouds.3 mph74%30.23 "Hg15 mi
2:00 AM21 °FPassing clouds.3 mph74%30.22 "Hg15 mi
1:00 AM23 °FPassing clouds.2 mph68%30.21 "Hg15 mi
12:00 AM25 °FPassing clouds.3 mph69%30.19 "Hg15 mi
11:00 PM
Sun, May 3
28 °FPassing clouds.2 mph59%30.19 "Hg15 mi
10:00 PM28 °FPassing clouds.3 mph59%30.18 "Hg15 mi
9:00 PM32 °FScattered clouds.7 mph51%30.17 "Hg15 mi
8:00 PM32 °FPartly sunny.9 mph47%30.16 "Hg15 mi
7:00 PM34 °FPartly sunny.8 mph44%30.16 "Hg15 mi
6:00 PM34 °FOvercast.6 mph44%30.16 "Hg15 mi
5:00 PM34 °FOvercast.7 mph44%30.16 "Hg15 mi
4:00 PM34 °FOvercast.14 mph44%30.16 "Hg15 mi
3:00 PM32 °FOvercast.7 mph51%30.15 "Hg15 mi
2:00 PM34 °FOvercast.10 mph48%30.14 "Hg15 mi
1:00 PM32 °FOvercast.12 mph51%30.14 "Hg15 mi
12:00 PM30 °FOvercast.10 mph59%30.13 "Hg15 mi
11:00 AM30 °FOvercast.8 mph59%30.11 "Hg15 mi
10:00 AM30 °FOvercast.9 mph55%30.11 "Hg15 mi
9:00 AM30 °FPartly sunny.9 mph59%30.10 "Hg15 mi
8:00 AM30 °FMostly cloudy.10 mph59%30.09 "Hg15 mi
7:00 AM28 °FCloudy.9 mph74%30.07 "Hg15 mi
6:00 AM28 °FMostly cloudy.8 mph86%30.06 "Hg15 mi
5:00 AM28 °FMostly cloudy.7 mph93%30.04 "Hg15 mi
Weather by CustomWeather, © 2015

See weather overviewHow to use our weather pages